Date String (YYYY-MM-DD hh:mm:ss) UTC,Instrument flags,Ambient pressure (hPa),Sample flow (lpm),Bypass flow (lpm),Sample temperature (°C),Ambient temperature (°C),ASC tube jacket temperature (°C),LED temperature (°C),Box temperature (°C),Sample RH (%),Span deviation,Mass concentration (μg/m³),Mass concentration (μg/m³),Mass concentration (μg/m³)
DateTimeUTC,F1_M11,P_M11,Q1_M11,Q2_M11,T1_M11,T2_M11,T3_M11,T4_M11,T5_M11,U1_M11,ZSPAN_M11,X0_M11,X2_M11,X1_M11
2021-12-28 07:00:00,,0805.3,5.00,0.00,21.6,20.8,00.0,30.7,23.2,10.4,0000.0,0018.13,0004.88,0002.82
2021-12-28 07:01:00,,0805.3,4.99,0.00,21.6,20.8,00.0,30.7,23.2,10.4,0000.0,0018.63,0004.81,0002.79
2021-12-28 07:02:00,,0805.2,5.00,0.00,21.6,20.8,00.0,30.7,23.2,10.4,0000.0,0018.84,0004.80,0002.75
2021-12-28 07:03:00,,0805.2,5.01,0.00,21.6,20.8,00.0,30.7,23.2,10.4,0000.0,0019.42,0004.82,0002.74
2021-12-28 07:04:00,,0805.2,5.00,0.00,21.5,20.8,00.0,30.7,23.1,10.4,0000.0,0019.70,0004.82,0002.74
2021-12-28 07:05:00,,0805.2,4.99,0.00,21.5,20.8,00.0,30.6,23.1,10.4,0000.0,0019.38,0004.79,0002.71
2021-12-28 07:06:00,,0805.3,5.01,0.00,21.5,21.0,00.0,30.6,23.2,10.4,0000.0,0019.65,0004.79,0002.71
2021-12-28 07:07:00,,0805.2,5.00,0.00,21.6,21.8,00.0,30.7,23.4,10.4,0000.0,0020.41,0004.81,0002.70
2021-12-28 07:08:00,,0805.3,5.00,0.00,21.8,22.7,00.0,30.7,23.8,10.3,0000.0,0019.80,0004.81,0002.67
2021-12-28 07:09:00,,0805.3,4.99,0.00,22.0,22.9,00.0,30.8,24.0,10.2,0000.0,0019.45,0004.79,0002.62
2021-12-28 07:10:00,,0805.2,5.00,0.00,22.0,22.7,00.0,30.8,24.0,10.2,0000.0,0020.01,0004.80,0002.61
2021-12-28 07:11:00,,0805.1,5.01,0.00,22.0,22.5,00.0,30.8,23.9,10.1,0000.0,0020.62,0004.76,0002.62
2021-12-28 07:12:00,,0805.2,4.98,0.00,22.1,22.3,00.0,30.9,23.9,10.1,0000.0,0019.47,0004.67,0002.59
2021-12-28 07:13:00,,0805.1,5.01,0.00,22.1,22.1,00.0,30.9,23.9,10.1,0000.0,0018.77,0004.55,0002.57
2021-12-28 07:14:00,,0805.1,5.00,0.00,22.1,22.0,00.0,30.9,23.9,10.1,0000.0,0018.93,0004.47,0002.54
2021-12-28 07:15:00,,0805.1,5.02,0.00,22.1,21.9,00.0,30.9,23.9,10.1,0000.0,0019.66,0004.43,0002.50
2021-12-28 07:16:00,,0805.1,4.99,0.00,22.1,21.8,00.0,30.9,23.9,10.1,0000.0,0021.08,0004.38,0002.45
2021-12-28 07:17:00,,0805.1,5.01,0.00,22.1,21.8,00.0,31.0,23.8,10.0,0000.0,0020.68,0004.26,0002.38
2021-12-28 07:18:00,,0805.1,4.98,0.00,22.1,21.7,00.0,31.0,23.8,10.1,0000.0,0019.28,0004.10,0002.31
2021-12-28 07:19:00,,0805.1,5.02,0.00,22.1,21.7,00.0,31.0,23.8,10.0,0000.0,0018.11,0003.97,0002.26
2021-12-28 07:20:00,,0805.0,4.98,0.00,22.1,21.6,00.0,31.0,23.8,10.1,0000.0,0016.78,0003.87,0002.20
2021-12-28 07:21:00,,0804.9,5.01,0.00,22.0,21.5,00.0,31.0,23.7,10.1,0000.0,0015.51,0003.76,0002.14
2021-12-28 07:22:00,,0804.9,4.99,0.00,22.0,21.5,00.0,31.0,23.7,10.1,0000.0,0014.86,0003.69,0002.08
2021-12-28 07:23:00,,0804.9,5.02,0.00,22.0,21.5,00.0,31.0,23.7,10.1,0000.0,0015.52,0003.68,0002.06
2021-12-28 07:24:00,,0804.9,4.99,0.00,22.0,21.4,00.0,31.0,23.7,10.1,0000.0,0015.35,0003.62,0002.00
2021-12-28 07:25:00,,0804.8,5.02,0.00,22.0,21.4,00.0,31.0,23.7,10.1,0000.0,0014.35,0003.56,0001.97
2021-12-28 07:26:00,,0804.9,5.00,0.00,22.0,21.4,00.0,31.0,23.7,10.1,0000.0,0013.20,0003.48,0001.95
2021-12-28 07:27:00,,0805.0,4.99,0.00,22.0,21.4,00.0,31.0,23.6,10.1,0000.0,0011.44,0003.46,0001.96
2021-12-28 07:28:00,,0804.9,5.00,0.00,22.0,21.3,00.0,31.0,23.6,10.1,0000.0,0011.15,0003.46,0001.98
2021-12-28 07:29:00,,0804.9,5.00,0.00,21.9,21.3,00.0,31.0,23.6,10.2,0000.0,0010.89,0003.47,0002.00
2021-12-28 07:30:00,,0804.9,5.00,0.00,21.9,21.3,00.0,31.0,23.6,10.2,0000.0,0010.81,0003.46,0002.03
2021-12-28 07:31:00,,0805.0,5.01,0.00,21.9,21.3,00.0,31.0,23.5,10.2,0000.0,0011.22,0003.55,0002.08
2021-12-28 07:32:00,,0805.0,5.00,0.00,21.9,21.3,00.0,31.0,23.6,10.2,0000.0,0011.59,0003.68,0002.15
2021-12-28 07:33:00,,0804.9,4.99,0.00,21.9,21.2,00.0,31.0,23.5,10.2,0000.0,0011.48,0003.74,0002.18
2021-12-28 07:34:00,,0804.9,5.00,0.00,21.9,21.2,00.0,31.0,23.5,10.2,0000.0,0011.27,0003.76,0002.21
2021-12-28 07:35:00,,0804.9,5.01,0.00,21.9,21.2,00.0,30.9,23.6,10.2,0000.0,0012.11,0003.81,0002.24
2021-12-28 07:36:00,,0804.7,5.00,0.00,21.9,21.2,00.0,30.9,23.6,10.1,0000.0,0012.60,0003.79,0002.24
2021-12-28 07:37:00,,0804.8,5.00,0.00,21.9,21.2,00.0,30.9,23.6,10.1,0000.0,0013.01,0003.75,0002.21
2021-12-28 07:38:00,,0804.9,5.02,0.00,21.9,21.2,00.0,30.9,23.5,10.1,0000.0,0012.32,0003.70,0002.18
2021-12-28 07:39:00,,0804.9,4.99,0.00,21.8,21.1,00.0,30.9,23.4,10.2,0000.0,0012.44,0003.70,0002.17
2021-12-28 07:40:00,,0805.0,5.00,0.00,21.8,21.1,00.0,30.9,23.4,10.2,0000.0,0012.49,0003.69,0002.16
2021-12-28 07:41:00,,0805.0,4.99,0.00,21.8,21.4,00.0,30.9,23.5,10.1,0000.0,0012.53,0003.69,0002.13
2021-12-28 07:42:00,,0805.0,5.00,0.00,21.9,22.2,00.0,30.9,23.8,10.1,0000.0,0012.05,0003.59,0002.07
2021-12-28 07:43:00,,0805.0,4.99,0.00,22.1,22.9,00.0,31.0,24.1,10.0,0000.0,0011.44,0003.42,0002.01
2021-12-28 07:44:00,,0805.1,5.00,0.00,22.2,22.8,00.0,31.0,24.2,10.0,0000.0,0010.70,0003.29,0001.97
2021-12-28 07:45:00,,0805.1,5.01,0.00,22.2,22.6,00.0,31.0,24.1,09.9,0000.0,0010.53,0003.18,0001.91
2021-12-28 07:46:00,,0805.0,5.01,0.00,22.2,22.4,00.0,31.1,24.0,10.0,0000.0,0009.41,0003.16,0001.88
2021-12-28 07:47:00,,0805.1,5.01,0.00,22.2,22.2,00.0,31.1,23.9,09.9,0000.0,0008.84,0003.18,0001.89
2021-12-28 07:48:00,,0805.0,4.99,0.00,22.2,22.0,00.0,31.1,23.9,10.0,0000.0,0008.07,0003.18,0001.91
2021-12-28 07:49:00,,0805.0,5.02,0.00,22.1,21.9,00.0,31.1,23.8,09.9,0000.0,0008.24,0003.16,0001.89
2021-12-28 07:50:00,,0805.0,4.99,0.00,22.1,21.8,00.0,31.1,23.8,09.9,0000.0,0008.13,0003.09,0001.85
2021-12-28 07:51:00,,0805.0,5.01,0.00,22.1,21.6,00.0,31.1,23.8,09.9,0000.0,0007.96,0002.97,0001.81
2021-12-28 07:52:00,,0804.9,5.00,0.00,22.1,21.6,00.0,31.1,23.8,09.9,0000.0,0008.01,0002.90,0001.75
2021-12-28 07:53:00,,0805.0,4.99,0.00,22.1,21.5,00.0,31.1,23.8,09.9,0000.0,0008.41,0002.90,0001.72
2021-12-28 07:54:00,,0805.1,4.99,0.00,22.0,21.5,00.0,31.1,23.7,10.0,0000.0,0008.93,0002.91,0001.67
2021-12-28 07:55:00,,0805.1,5.00,0.00,22.0,21.5,00.0,31.1,23.7,10.0,0000.0,0008.85,0002.90,0001.64
2021-12-28 07:56:00,,0805.1,5.01,0.00,22.0,21.5,00.0,31.1,23.7,09.9,0000.0,0008.51,0002.86,0001.58
2021-12-28 07:57:00,,0805.1,4.99,0.00,22.0,21.4,00.0,31.1,23.7,09.9,0000.0,0008.26,0002.68,0001.51
2021-12-28 07:58:00,,0805.1,4.99,0.00,22.0,21.4,00.0,31.1,23.7,10.0,0000.0,0008.13,0002.56,0001.44
2021-12-28 07:59:00,,0805.0,5.00,0.00,22.0,21.4,00.0,31.0,23.7,10.0,0000.0,0008.20,0002.50,0001.40
